EW0609 Weather Reports


Display with metric or nautical units.
time (UTC)temp
F
wind
direction
speed
MPH
gust
MPH
rain 1hr
in
rain 24hr
in
rain mn
in
humidity
%
barometer
mb
20260904145306 81 172 3.0 9.0 0.00 0.00 0.00 56 1015.7
20260904144804 80 173 2.0 7.0 0.00 0.00 0.00 55 1015.8
20260904144304 80 128 3.0 6.0 0.00 0.00 0.00 57 1015.7
20260904143807 80 131 3.0 5.0 0.00 0.00 0.00 57 1015.8
20260904143643 79 164 3.0 5.0 0.00 0.00 0.00 58 1015.7
20260904143156 79 103 3.0 5.0 0.00 0.00 0.00 59 1015.7
20260904142307 78 157 3.0 5.0 0.00 0.00 0.00 61 1015.8
20260904141804 77 94 2.0 4.0 0.00 0.00 0.00 62 1015.6
20260904141304 76 151 2.0 3.0 0.00 0.00 0.00 63 1015.6
20260904141154 76 145 1.0 4.0 0.00 0.00 0.00 64 1015.7
20260904140305 76 102 1.0 4.0 0.00 0.00 0.00 65 1015.7
20260904135807 75 102 3.0 4.0 0.00 0.00 0.00 66 1015.7
20260904135306 74 97 0.0 5.0 0.00 0.00 0.00 68 1015.8
20260904134805 74 102 3.0 5.0 0.00 0.00 0.00 69 1015.7
20260904134304 73 124 2.0 5.0 0.00 0.00 0.00 70 1015.8
20260904133804 72 157 2.0 3.0 0.00 0.00 0.00 71 1015.7
20260904133305 72 127 0.0 5.0 0.00 0.00 0.00 72 1015.7
20260904132806 71 97 3.0 5.0 0.00 0.00 0.00 72 1015.6
20260904132307 71 104 2.0 4.0 0.00 0.00 0.00 73 1015.6
20260904132037 71 148 2.0 4.0 0.00 0.00 0.00 73 1015.6
20260904131807 71 148 2.0 4.0 0.00 0.00 0.00 73 1015.6
20260904131306 71 120 3.0 4.0 0.00 0.00 0.00 73 1015.5
20260904131025 71 99 0.0 0.0 0.00 0.00 0.00 73 1015.4
20260904130809 71 99 0.0 0.0 0.00 0.00 0.00 73 1015.4
20260904130305 70 151 0.0 1.0 0.00 0.00 0.00 73 1015.4
20260904125804 70 161 0.0 3.0 0.00 0.00 0.00 73 1015.3
20260904125305 71 176 1.0 4.0 0.00 0.00 0.00 72 1015.3
20260904124804 71 171 2.0 4.0 0.00 0.00 0.00 72 1015.3
20260904124334 71 173 2.0 6.0 0.00 0.00 0.00 71 1015.3
20260904123926 71 144 0.0 6.0 0.00 0.00 0.00 71 1015.2
20260904123024 72 169 2.0 6.0 0.00 0.00 0.00 70 1015.1
20260904122925 71 144 2.0 4.0 0.00 0.00 0.00 70 1015.1
20260904121805 72 159 1.0 6.0 0.00 0.00 0.00 70 1014.9
20260904121304 72 207 4.0 6.0 0.00 0.00 0.00 70 1015.1
20260904121140 72 171 3.0 6.0 0.00 0.00 0.00 70 1014.9
20260904120658 72 196 3.0 9.0 0.00 0.00 0.00 70 1014.8
20260904120139 72 196 3.0 9.0 0.00 0.00 0.00 70 1014.8
20260904115306 72 165 2.0 7.0 0.00 0.00 0.00 70 1014.9
20260904114806 72 228 3.0 6.0 0.00 0.00 0.00 70 1014.8
20260904114641 72 124 2.0 5.0 0.00 0.00 0.00 70 1015.1
20260904114153 72 173 3.0 6.0 0.00 0.00 0.00 71 1014.9
20260904113304 72 204 3.0 6.0 0.00 0.00 0.00 71 1014.9
20260904112806 72 180 4.0 7.0 0.00 0.00 0.00 71 1014.9
20260904112306 72 173 3.0 7.0 0.00 0.00 0.00 71 1014.8
20260904111806 72 176 2.0 4.0 0.00 0.00 0.00 71 1014.7
20260904111644 72 178 2.0 5.0 0.00 0.00 0.00 70 1014.7
20260904110805 73 185 1.0 5.0 0.00 0.00 0.00 70 1014.6
20260904110305 73 147 1.0 5.0 0.00 0.00 0.00 70 1014.5
20260904105804 73 147 3.0 5.0 0.00 0.00 0.00 70 1014.5
20260904105306 72 158 2.0 5.0 0.00 0.00 0.00 70 1014.5
20260904104805 72 144 3.0 6.0 0.00 0.00 0.00 70 1014.6
20260904104305 72 141 2.0 6.0 0.00 0.00 0.00 70 1014.5
20260904103804 73 131 2.0 6.0 0.00 0.00 0.00 70 1014.5
20260904103305 73 135 3.0 6.0 0.00 0.00 0.00 70 1014.5
20260904102804 72 87 2.0 5.0 0.00 0.00 0.00 70 1014.5
20260904102306 72 154 2.0 5.0 0.00 0.00 0.00 70 1014.5
20260904101805 72 118 3.0 6.0 0.00 0.00 0.00 70 1014.4
20260904101531 72 137 3.0 6.0 0.00 0.00 0.00 70 1014.3
20260904100805 72 118 3.0 6.0 0.00 0.00 0.00 71 1014.4
20260904100640 72 155 2.0 6.0 0.00 0.00 0.00 70 1014.2
20260904095804 72 110 3.0 6.0 0.00 0.00 0.00 71 1014.2
20260904095306 72 113 2.0 6.0 0.00 0.00 0.00 70 1014.2
20260904094803 72 92 4.0 6.0 0.00 0.00 0.00 70 1014.0
20260904094305 72 124 3.0 6.0 0.00 0.00 0.00 69 1014.2
20260904093804 72 127 4.0 5.0 0.00 0.00 0.00 69 1014.2
20260904093305 72 123 3.0 5.0 0.00 0.00 0.00 70 1014.0
20260904092804 72 110 3.0 6.0 0.00 0.00 0.00 70 1014.2
20260904092306 72 107 3.0 6.0 0.00 0.00 0.00 70 1014.2
20260904091808 71 123 2.0 5.0 0.00 0.00 0.00 70 1014.2
20260904091305 72 138 2.0 7.0 0.00 0.00 0.00 69 1014.2
20260904090804 72 116 1.0 7.0 0.00 0.00 0.00 68 1014.2
20260904090306 72 128 2.0 7.0 0.00 0.00 0.00 68 1014.2
20260904090135 73 134 3.0 6.0 0.00 0.00 0.00 67 1014.0
20260904085306 73 121 2.0 9.0 0.00 0.00 0.00 67 1014.0
20260904084806 73 142 2.0 9.0 0.00 0.00 0.00 67 1014.2
20260904084304 73 162 2.0 6.0 0.00 0.00 0.00 66 1014.2
20260904083804 73 155 2.0 6.0 0.00 0.00 0.00 66 1014.2
20260904083633 73 175 2.0 6.0 0.00 0.00 0.00 66 1014.3
20260904082804 73 107 3.0 6.0 0.00 0.00 0.00 67 1014.3
20260904082640 73 162 2.0 6.0 0.00 0.00 0.00 67 1014.3
20260904082141 73 148 3.0 5.0 0.00 0.00 0.00 67 1014.3
20260904081632 73 125 2.0 5.0 0.00 0.00 0.00 66 1014.3
20260904080804 73 157 3.0 5.0 0.00 0.00 0.00 66 1014.2
20260904080306 74 130 2.0 5.0 0.00 0.00 0.00 66 1014.3
20260904075807 73 127 2.0 6.0 0.00 0.00 0.00 66 1014.3
20260904075307 73 145 3.0 7.0 0.00 0.00 0.00 66 1014.2
20260904074804 73 140 3.0 7.0 0.00 0.00 0.00 66 1014.3
20260904074305 73 162 2.0 7.0 0.00 0.00 0.00 66 1014.3
20260904073805 73 114 4.0 7.0 0.00 0.00 0.00 66 1014.3
20260904073304 74 117 3.0 7.0 0.00 0.00 0.00 65 1014.2
20260904072804 74 89 3.0 9.0 0.00 0.00 0.00 65 1014.3
20260904072306 74 147 3.0 9.0 0.00 0.00 0.00 65 1014.4
20260904071804 74 148 2.0 9.0 0.00 0.00 0.00 65 1014.3
20260904071304 74 159 4.0 9.0 0.00 0.00 0.00 65 1014.4
20260904070805 74 180 3.0 9.0 0.00 0.00 0.00 64 1014.4
20260904070609 74 179 4.0 9.0 0.00 0.00 0.00 64 1014.4
20260904070141 74 149 3.0 7.0 0.00 0.00 0.00 64 1014.4
20260904065639 74 178 3.0 9.0 0.00 0.00 0.00 64 1014.6
20260904064805 74 151 4.0 9.0 0.00 0.00 0.00 64 1014.5
20260904064305 75 113 3.0 7.0 0.00 0.00 0.00 63 1014.5
20260904063803 75 151 4.0 7.0 0.00 0.00 0.00 63 1014.5
20260904063312 75 169 4.0 10.0 0.00 0.00 0.00 63 1014.6
20260904062805 75 106 4.0 10.0 0.00 0.00 0.00 63 1014.7
20260904062306 75 124 4.0 9.0 0.00 0.00 0.00 62 1014.6
20260904062104 75 190 3.0 9.0 0.00 0.00 0.00 62 1014.7
20260904061635 76 161 3.0 9.0 0.00 0.00 0.00 61 1014.7
20260904060804 76 137 2.0 7.0 0.00 0.00 0.00 60 1014.6
20260904060630 76 173 4.0 7.0 0.00 0.00 0.00 60 1014.6
20260904055804 77 135 3.0 7.0 0.00 0.00 0.00 59 1014.6
20260904055306 77 147 3.0 9.0 0.00 0.00 0.00 59 1014.5
20260904054804 77 142 4.0 9.0 0.00 0.00 0.00 59 1014.6
20260904054303 77 130 3.0 9.0 0.00 0.00 0.00 58 1014.7
20260904053804 77 117 3.0 7.0 0.00 0.00 0.00 58 1014.7
20260904053304 77 149 3.0 10.0 0.00 0.00 0.00 59 1014.7
20260904052805 77 214 4.0 10.0 0.00 0.00 0.00 58 1014.7
20260904052307 78 147 3.0 9.0 0.00 0.00 0.00 57 1014.7
20260904051804 78 142 4.0 12.0 0.00 0.00 0.00 57 1014.7
20260904051303 78 165 7.0 12.0 0.00 0.00 0.00 57 1014.7
20260904050804 78 99 4.0 10.0 0.00 0.00 0.00 57 1014.6
20260904050305 78 114 4.0 13.0 0.00 0.00 0.00 57 1014.6
20260904045804 78 118 5.0 13.0 0.00 0.00 0.00 57 1014.5
20260904045307 78 106 4.0 14.0 0.00 0.00 0.00 57 1014.5
20260904044806 78 175 6.0 14.0 0.00 0.00 0.00 56 1014.5
20260904044305 78 152 5.0 13.0 0.00 0.00 0.00 56 1014.6
20260904043804 78 127 7.0 13.0 0.00 0.00 0.00 56 1014.7
20260904043307 77 134 7.0 14.0 0.00 0.00 0.00 55 1014.7
20260904043134 78 128 7.0 14.0 0.00 0.00 0.00 55 1014.6
20260904042306 78 134 7.0 13.0 0.00 0.00 0.00 55 1014.6
20260904041804 78 131 6.0 13.0 0.00 0.00 0.00 54 1014.6
20260904041305 78 133 7.0 12.0 0.00 0.00 0.00 55 1014.5
20260904040803 78 111 6.0 13.0 0.00 0.00 0.00 55 1014.5
20260904040305 78 111 7.0 17.0 0.00 0.00 0.00 55 1014.6
20260904035804 77 99 8.0 17.0 0.00 0.00 0.00 56 1014.5
20260904035306 77 103 4.0 12.0 0.00 0.00 0.00 56 1014.6
20260904035142 77 140 5.0 12.0 0.00 0.00 0.00 55 1014.5
20260904034305 78 140 5.0 12.0 0.00 0.00 0.00 54 1014.6
20260904033805 78 93 5.0 12.0 0.00 0.00 0.00 54 1014.5
20260904033306 78 134 5.0 9.0 0.00 0.00 0.00 54 1014.6
20260904032804 78 96 4.0 9.0 0.00 0.00 0.00 55 1014.6
20260904032306 78 148 4.0 12.0 0.00 0.00 0.00 54 1014.6
20260904031803 78 117 7.0 13.0 0.00 0.00 0.00 54 1014.4
20260904031303 78 90 6.0 13.0 0.00 0.00 0.00 54 1014.4
20260904030805 78 137 8.0 14.0 0.00 0.00 0.00 54 1014.3
20260904030306 79 116 7.0 14.0 0.00 0.00 0.00 53 1014.3
20260904025806 79 116 6.0 13.0 0.00 0.00 0.00 53 1014.2
20260904025306 79 110 6.0 13.0 0.00 0.00 0.00 53 1014.2
20260904024803 79 128 5.0 12.0 0.00 0.00 0.00 53 1014.0
20260904024529 80 130 7.0 12.0 0.00 0.00 0.00 50 1014.0
20260904023805 80 109 6.0 11.0 0.00 0.00 0.00 46 1014.0
20260904023639 81 106 5.0 7.0 0.00 0.00 0.00 45 1013.9
20260904022804 82 116 4.0 7.0 0.00 0.00 0.00 44 1013.8
20260904022306 81 124 3.0 9.0 0.00 0.00 0.00 44 1013.6
20260904021804 81 109 4.0 9.0 0.00 0.00 0.00 45 1013.7
20260904021302 81 99 6.0 9.0 0.00 0.00 0.00 46 1013.6
20260904021132 81 94 5.0 12.0 0.00 0.00 0.00 45 1013.6
20260904020304 81 89 6.0 14.0 0.00 0.00 0.00 47 1013.5
20260904015804 80 103 7.0 14.0 0.00 0.00 0.00 48 1013.6
20260904015559 80 106 6.0 10.0 0.00 0.00 0.00 50 1013.6
20260904014806 80 82 4.0 9.0 0.00 0.00 0.00 52 1013.5
20260904014303 80 149 6.0 14.0 0.00 0.00 0.00 51 1013.5
20260904013804 80 107 7.0 14.0 0.00 0.00 0.00 51 1013.4
20260904013308 80 73 7.0 13.0 0.00 0.00 0.00 50 1013.4
20260904012804 81 124 4.0 13.0 0.00 0.00 0.00 50 1013.5
20260904012647 80 104 7.0 13.0 0.00 0.00 0.00 52 1013.5
20260904011804 80 120 4.0 23.0 0.00 0.00 0.00 53 1013.4
20260904011304 80 131 7.0 23.0 0.00 0.00 0.00 54 1013.4
20260904010805 80 141 9.0 21.0 0.00 0.00 0.00 53 1013.5
20260904010710 81 138 11.0 21.0 0.00 0.00 0.00 52 1013.5
20260904005804 81 133 10.0 19.0 0.00 0.00 0.00 52 1013.4
20260904005649 81 206 8.0 18.0 0.00 0.00 0.00 53 1013.4
20260904005140 81 140 6.0 18.0 0.00 0.00 0.00 53 1013.6
20260904004303 81 138 8.0 17.0 0.00 0.00 0.00 53 1013.7
20260904003806 82 159 8.0 15.0 0.00 0.00 0.00 52 1013.7
20260904003534 84 176 9.0 15.0 0.00 0.00 0.00 46 1013.8
20260904003429 83 154 6.0 15.0 0.00 0.00 0.00 48 1013.8
20260904002640 84 145 5.0 16.0 0.00 0.00 0.00 45 1013.6
20260904002038 83 190 7.0 16.0 0.00 0.00 0.00 49 1013.3
20260904001935 84 111 8.0 16.0 0.00 0.00 0.00 47 1013.4
20260904000803 83 100 8.0 17.0 0.00 0.00 0.00 49 1013.3
20260904000305 83 134 9.0 20.0 0.00 0.00 0.00 49 1013.2
20260903235803 84 99 11.0 20.0 0.00 0.00 0.00 48 1013.3
20260903235305 85 110 10.0 21.0 0.00 0.00 0.00 46 1013.3
20260903234805 85 123 13.0 21.0 0.00 0.00 0.00 46 1013.2
20260903234304 85 124 10.0 20.0 0.00 0.00 0.00 47 1013.2
20260903233805 85 121 11.0 21.0 0.00 0.00 0.00 47 1013.2
20260903233303 86 103 12.0 21.0 0.00 0.00 0.00 46 1013.2
20260903232803 86 71 9.0 21.0 0.00 0.00 0.00 44 1013.2
20260903232306 87 114 10.0 20.0 0.00 0.00 0.00 41 1013.3
20260903231814 87 114 9.0 23.0 0.00 0.00 0.00 41 1012.9
20260903231458 86 107 11.0 21.0 0.00 0.00 0.00 43 1012.9
20260903231403 86 82 12.0 23.0 0.00 0.00 0.00 42 1012.8
20260903230649 86 102 11.0 19.0 0.00 0.00 0.00 44 1012.8
20260903225803 86 120 13.0 19.0 0.00 0.00 0.00 44 1012.8
20260903225306 88 75 9.0 16.0 0.00 0.00 0.00 42 1012.7
20260903224803 88 137 7.0 14.0 0.00 0.00 0.00 40 1012.8
20260903224303 89 125 6.0 18.0 0.00 0.00 0.00 39 1013.0
20260903223804 92 120 10.0 18.0 0.00 0.00 0.00 33 1013.2
20260903223304 94 254 6.0 14.0 0.00 0.00 0.00 26 1012.8
20260903222805 95 231 5.0 11.0 0.00 0.00 0.00 27 1012.4
20260903222305 95 266 6.0 15.0 0.00 0.00 0.00 27 1012.3
20260903221803 94 266 6.0 15.0 0.00 0.00 0.00 28 1012.3
20260903221304 94 248 9.0 15.0 0.00 0.00 0.00 27 1012.3
20260903220805 94 295 8.0 16.0 0.00 0.00 0.00 26 1012.2
20260903220303 93 305 6.0 21.0 0.00 0.00 0.00 27 1012.3
20260903215803 93 261 9.0 21.0 0.00 0.00 0.00 26 1012.3
20260903215306 94 252 7.0 19.0 0.00 0.00 0.00 28 1012.3
20260903214804 93 310 7.0 16.0 0.00 0.00 0.00 30 1012.5
20260903214306 94 251 8.0 21.0 0.00 0.00 0.00 29 1012.6
20260903214147 95 274 12.0 21.0 0.00 0.00 0.00 28 1012.7
20260903213531 95 255 9.0 17.0 0.00 0.00 0.00 26 1012.5
20260903212805 95 276 7.0 12.0 0.00 0.00 0.00 27 1012.7
20260903212306 95 282 4.0 12.0 0.00 0.00 0.00 31 1012.7
20260903211807 95 272 4.0 11.0 0.00 0.00 0.00 30 1012.7
20260903211303 94 261 6.0 15.0 0.00 0.00 0.00 30 1012.7
20260903210803 94 269 7.0 15.0 0.00 0.00 0.00 30 1012.7
20260903210307 95 243 6.0 15.0 0.00 0.00 0.00 29 1012.7
20260903205804 96 296 7.0 14.0 0.00 0.00 0.00 29 1012.8
20260903205306 96 213 4.0 14.0 0.00 0.00 0.00 29 1012.8
20260903204804 96 219 4.0 14.0 0.00 0.00 0.00 28 1012.8
20260903204302 97 196 6.0 11.0 0.00 0.00 0.00 28 1012.8
20260903203803 98 204 4.0 11.0 0.00 0.00 0.00 27 1012.8
20260903203304 99 149 3.0 12.0 0.00 0.00 0.00 25 1012.9
20260903202804 101 166 4.0 12.0 0.00 0.00 0.00 26 1012.8
20260903202306 100 82 3.0 7.0 0.00 0.00 0.00 27 1012.9
20260903201808 99 275 4.0 7.0 0.00 0.00 0.00 27 1013.0
20260903201305 99 186 2.0 7.0 0.00 0.00 0.00 28 1013.2
20260903201132 101 116 2.0 11.0 0.00 0.00 0.00 27 1013.3
20260903200303 99 131 3.0 11.0 0.00 0.00 0.00 28 1013.3
20260903195803 98 251 6.0 11.0 0.00 0.00 0.00 27 1013.5
20260903195306 99 224 4.0 16.0 0.00 0.00 0.00 27 1013.4
20260903194809 100 182 8.0 16.0 0.00 0.00 0.00 25 1013.6
20260903194303 102 141 7.0 11.0 0.00 0.00 0.00 25 1013.6
20260903193803 101 123 4.0 10.0 0.00 0.00 0.00 26 1013.6
20260903193303 101 118 2.0 10.0 0.00 0.00 0.00 26 1013.6
20260903192803 101 217 4.0 9.0 0.00 0.00 0.00 26 1013.7
20260903192306 101 183 5.0 10.0 0.00 0.00 0.00 28 1013.7
20260903191802 101 231 4.0 11.0 0.00 0.00 0.00 28 1013.9
20260903191303 101 254 5.0 11.0 0.00 0.00 0.00 28 1014.0
20260903190805 100 183 4.0 7.0 0.00 0.00 0.00 29 1014.0
20260903190637 100 293 2.0 9.0 0.00 0.00 0.00 28 1014.2
20260903185803 99 223 5.0 9.0 0.00 0.00 0.00 28 1014.2
20260903185306 100 258 2.0 9.0 0.00 0.00 0.00 29 1014.4
20260903185136 100 210 2.0 9.0 0.00 0.00 0.00 28 1014.4
20260903184303 99 221 5.0 11.0 0.00 0.00 0.00 29 1014.5
20260903183803 99 298 3.0 11.0 0.00 0.00 0.00 28 1014.5
20260903183303 100 257 5.0 11.0 0.00 0.00 0.00 28 1014.6
20260903182804 100 237 6.0 11.0 0.00 0.00 0.00 29 1014.7
20260903182306 99 173 6.0 11.0 0.00 0.00 0.00 29 1014.7
20260903181803 98 324 5.0 10.0 0.00 0.00 0.00 30 1014.8
20260903181607 98 251 5.0 10.0 0.00 0.00 0.00 33 1014.9
20260903180805 98 223 4.0 13.0 0.00 0.00 0.00 29 1014.9
20260903180303 97 219 6.0 13.0 0.00 0.00 0.00 31 1015.2
20260903175807 98 243 5.0 11.0 0.00 0.00 0.00 30 1015.2
20260903175308 99 279 5.0 11.0 0.00 0.00 0.00 30 1015.2
20260903174805 98 259 5.0 11.0 0.00 0.00 0.00 32 1015.3
20260903174304 98 245 4.0 11.0 0.00 0.00 0.00 31 1015.2
20260903173803 97 204 5.0 12.0 0.00 0.00 0.00 32 1015.4
20260903173657 97 234 8.0 12.0 0.00 0.00 0.00 32 1015.4
20260903173030 97 233 7.0 12.0 0.00 0.00 0.00 32 1015.4
20260903172809 97 233 7.0 12.0 0.00 0.00 0.00 32 1015.4
20260903172306 96 268 4.0 13.0 0.00 0.00 0.00 32 1015.3
20260903171803 96 193 5.0 15.0 0.00 0.00 0.00 33 1015.4
20260903171304 96 259 8.0 16.0 0.00 0.00 0.00 33 1015.5
20260903170804 95 226 5.0 16.0 0.00 0.00 0.00 34 1015.5
20260903170309 95 159 7.0 14.0 0.00 0.00 0.00 34 1015.5
20260903165804 95 283 7.0 13.0 0.00 0.00 0.00 34 1015.6
20260903165305 95 274 8.0 14.0 0.00 0.00 0.00 34 1015.5
20260903164807 94 243 6.0 17.0 0.00 0.00 0.00 35 1015.5
20260903164304 94 231 6.0 17.0 0.00 0.00 0.00 34 1015.4
20260903163804 94 221 8.0 16.0 0.00 0.00 0.00 36 1015.5
20260903163653 94 216 7.0 16.0 0.00 0.00 0.00 36 1015.5
20260903162807 94 151 2.0 10.0 0.00 0.00 0.00 38 1015.5
20260903162306 93 241 3.0 10.0 0.00 0.00 0.00 39 1015.5
20260903161803 93 216 5.0 10.0 0.00 0.00 0.00 40 1015.6
20260903161303 91 245 4.0 11.0 0.00 0.00 0.00 40 1015.5
20260903161141 91 231 5.0 13.0 0.00 0.00 0.00 39 1015.6
20260903160304 91 275 7.0 13.0 0.00 0.00 0.00 40 1015.7
20260903155803 90 196 4.0 15.0 0.00 0.00 0.00 43 1015.7
20260903155306 89 212 5.0 15.0 0.00 0.00 0.00 42 1015.7
20260903154802 88 217 7.0 13.0 0.00 0.00 0.00 43 1015.7
20260903154302 88 226 4.0 10.0 0.00 0.00 0.00 44 1015.6
20260903153804 87 220 6.0 10.0 0.00 0.00 0.00 46 1015.6
20260903153303 86 226 5.0 12.0 0.00 0.00 0.00 46 1015.7
20260903152801 85 265 5.0 13.0 0.00 0.00 0.00 45 1015.7
20260903152306 85 243 4.0 13.0 0.00 0.00 0.00 47 1015.7
20260903151802 84 199 6.0 13.0 0.00 0.00 0.00 47 1015.7
20260903151303 83 255 6.0 13.0 0.00 0.00 0.00 48 1015.7
20260903150806 83 135 4.0 11.0 0.00 0.00 0.00 51 1015.8
20260903150301 82 197 5.0 11.0 0.00 0.00 0.00 49 1015.8
20260903145804 81 216 4.0 11.0 0.00 0.00 0.00 52 1015.9